Showing default

GEESAT 3-09, 61019

Orbit data source: Space-Track

GEESAT 3-09, 61019 is a payload satellite owned by GeeSpace (CN) in LEO that was launched on Thu, 05 Sep 2024 UTC via a CHANG ZHENG 6 launch vehicle from the Taiyaun Space Center, China (TSC). Payloads include a variety of satellites, spacecraft, and rockets equipped with specific instruments for various scientific and technological missions. These include communications satellites like Starlink; space stations such as the ISS; scientific satellites like the Hubble; Earth observation satellites from companies like Planet Labs, Umbra, and HawkEye 360; GPS; miniature CubeSats for education and research; and military/defense satellites.

Loading next visibility...
GEESAT 3-09 details
Identifier
61019, 2024-159J
Orbit
LEO
Last TLE update9 hours ago
Origin
Flag of CNGeeSpace (CN / PRC)
ManufacturerTaizhou Xingkong
MissionOperational spacecraft
Bus & MotorGEESAT1, Unknown motor
Mass130 kg wet, 130 kg dry
Launch date (UTC)
2024-09-05 (4 months ago)
Launch vehicle
CHANG ZHENG 6
Launch site
Taiyaun Space Center, China (TSC)
Object type
Payload
Rocket body
Debris
Shape & HBRUnknown
Radar Cross SectionMedium (>0.1 m² and <1 m²)

Expand to show TLE details & history

TLE from 9 hours ago
0 GEESAT 3-09
1 61019U 24159J   25015.10696657  .00006853  00000-0  69557-3 0  9998
2 61019  49.9986 341.8065 0006987  44.4976 315.6526 14.91762977 19602
Epoch: 2025-01-15T02:34Z
Definitive object data (Epoch: 2025-01-15T02:34:01.911Z)
Latitude-0.00002°
Longitude-171.50554°
Altitude589.503 km
Speed7.569 km/s
True Right ascension22h 47m 13s
True Declination0° 00' 00"
Sunlit
Object was in daylight at TLE epoch
Visualization TLE readout
Latitude-46.59707°
Longitude68.64256°
Altitude612.388 km
Speed7.551 km/s
Apparent Right ascension19h 42m 10s
Apparent Declination-71° 47' 41"
Sunlit
Object is in daylight
Visualization observer readout
Local Sidereal Time12:23:48
Azimuth156.009° SSE
Elevation-43.621°
Doppler factor1
Orbital elements
Apogee altitude598.07 km
Perigee altitude588.329 km
Semi-major axis6,971.337 km
Eccentricity0.0006987
Inclination49.9986°
RAAN341.8065°
Arg. of periapsis44.4976°
True anomaly315.5966°
Mean anomaly315.6526°
Eccentric anomaly315.6246°
Mean motion3.7288 °/min
BSTAR0.00069557
Orbital period96.55 mins
Loading maneuver chart data...
Loading historical data...
Loading historical data...
Loading historical data...
Loading historical data...
Loading historical data...
Loading historical data...
Loading historical data...

GEESAT 3-09 Visibility forecast

Observer location: undefined°, undefined

Span
Click to sort rows by Start time (UTC) header in descending order
Start Az.
Max El. time (UTC)
Max El. Az.
Max El.
End time (UTC)
End Az.
6 mins2025-01-15 23:37:34.061Z189.411° SSW2025-01-15 23:40:34.061Z135.987° SSE25.819°2025-01-15 23:43:34.061Z81.092° E
6 mins2025-01-16 01:18:34.061Z261.066° W2025-01-16 01:21:34.061Z349.708° N38.174°2025-01-16 01:24:34.061Z45.781° ENE
5 mins2025-01-16 03:00:34.061Z311.45° NW2025-01-16 03:02:34.061Z347.154° N21.283°2025-01-16 03:05:34.061Z38.425° NE
5 mins2025-01-16 04:42:34.061Z332.523° NNW2025-01-16 04:44:34.061Z11.059° NNE22.865°2025-01-16 04:47:34.061Z62.775° ENE
6 mins2025-01-16 06:23:34.061Z313.132° NW2025-01-16 06:25:34.061Z350.984° N41.749°2025-01-16 06:29:34.061Z114.2° SE
5 mins2025-01-16 08:04:34.061Z261.728° W2025-01-16 08:06:34.061Z225.975° WSW19.901°2025-01-16 08:09:34.061Z180.255° SSW
|